Weather Roundup
Issued by NWS

Home | Current Version | Previous Version | Graphics & Text | Print | Product List | Glossary Off
Versions: 1 2 3 4 5 6 7 8 9 10 11 12 13 14 15 16 17 18 19 20 21 22 23 24 25 26 27 28 29 30 31 32 33 34 35 36 37 38 39 40 41 42 43 44 45 46 47 48 49 50

000
NZUS93 KARX 280159
HRRWXR

CURRENT HOURLY OBSERVATIONS ACROSS
MUCH OF THE UPPER MISSISSIPPI VALLEY
NATIONAL WEATHER SERVICE LA CROSSE WI
800 PM CST FRI FEB 27 2015


...SOUTHEAST MINNESOTA...


CITY           SKY/WX    TMP DP  RH WIND       PRES   REMARKS
ROCHESTER      PTCLDY    -5  -9  83 S9        30.51S WCI -22
ROCHESTER/MAYO FAIR       2  -5  70 S6        30.52F WCI  -9
WINONA         CLEAR      9   0  66 SW5       30.59S WCI   0
AUSTIN         PTCLDY     0  -6  78 CALM      30.52S
ALBERT LEA     PTCLDY     3   0  85 CALM      30.51S
DODGE CENTER   PTCLDY    -2  -8  78 S9        30.50S WCI -18
PRESTON        MOCLDY    -1  -6  78 SW5       30.53S WCI -11
OWATONNA       CLEAR      3  -2  78 S6        30.51S WCI  -8
FARIBAULT      CLEAR      3  -2  78 S5        30.52S WCI  -6
$$

...ELSEWHERE IN MINNESOTA...


CITY           SKY/WX    TMP DP  RH WIND       PRES   REMARKS
MINNEAPOLIS    CLEAR     10  -2  58 S6        30.53R WCI   0
INTNL FALLS    PTCLDY     9  -9  44 SW8       30.32R WCI  -3
DULUTH         CLEAR     12  -6  44 SW14      30.37R WCI  -3
RED WING       CLEAR      7  -2  66 SW7       30.55R WCI  -5
REDWOOD FALLS  FAIR       6  -1  73 S7        30.48S WCI  -6
MANKATO        CLEAR      5  -6  61 S7        30.51S WCI  -7
FAIRMONT       CLEAR      0  -8  71 S9        30.49R WCI -16
$$

...SOUTHWEST WISCONSIN...


CITY           SKY/WX    TMP DP  RH WIND       PRES   REMARKS
LA CROSSE      CLEAR      5  -6  60 S8        30.59R WCI  -8
PRAIRIE DU CHI PTCLDY     3  -8  61 SW3       30.62R
BOSCOBEL       CLEAR      4  -7  60 SW6       30.61R WCI  -7
LONE ROCK      NOT AVBL
PLATTEVILLE    CLEAR      1  -8  67 S8        30.58S WCI -14
FORT MC COY    CLEAR      7  -6  56 SW3       30.57R
VIROQUA        FAIR       3  -6  67 SW5       30.52R WCI  -7
WIS DELLS      NOT AVBL
$$

...ELSEWHERE IN WISCONSIN...


CITY           SKY/WX    TMP DP  RH WIND       PRES   REMARKS
MILWAUKEE      CLEAR      9  -6  50 SW8       30.60R WCI  -3
MADISON        CLEAR      6  -6  57 SW3       30.58R
GREEN BAY      CLEAR     12  -2  53 SW6       30.52R WCI   3
EAU CLAIRE     NOT AVBL
BLACK RVR FLS  FAIR      -2 -11  66 S3        30.55R
MEDFORD        CLEAR      5  -5  63 SW3       30.45R
WAUSAU         CLEAR      7  -4  60 CALM      30.47R
WIS RAPIDS     CLEAR      9  -9  44 SW6       30.53R WCI  -1
MARSHFIELD     CLEAR      6  -6  57 W7        30.48R WCI  -6
RICE LAKE      CLEAR      8  -2  63 SW5       30.50R WCI  -1
$$

...NORTHEAST IOWA...


CITY           SKY/WX    TMP DP  RH WIND       PRES   REMARKS
DECORAH        MOCLDY     0  -9  65 CALM      30.55R
MASON CITY     PTCLDY    -6  -9  86 S6        30.55R WCI -19
CHARLES CITY   MOCLDY     0  -6  78 S6        30.56S WCI -12
OELWEIN        MOCLDY    -6 -11  77 S5        30.59R WCI -17
$$

...ELSEWHERE IN IOWA...


CITY           SKY/WX    TMP DP  RH WIND       PRES   REMARKS
DES MOINES     PTCLDY    10  -1  61 E5        30.59R WCI   2
IOWA CITY      MOCLDY    -1  -4  87 SE3       30.66R
FORT DODGE     FAIR       0  -8  71 CALM      30.55S
$$

...NORTHERN ILLINOIS...


CITY           SKY/WX    TMP DP  RH WIND       PRES   REMARKS
CHICAGO-OHARE  CLEAR      6  -6  57 SW6       30.63S WCI  -4
CHICAGO-MIDWAY FAIR       9  -4  55 W7        30.65R WCI  -2
MOLINE         MOCLDY    -4 -12  68 CALM      30.65R
ROCKFORD       CLEAR      2  -7  66 SW3       30.64R
PEORIA         PTCLDY     9  -3  58 CALM      30.66R
$$

NOTE: "FAIR" INDICATES FEW OR NO CLOUDS BELOW 12,000 FEET WITH NO
SIGNIFICANT WEATHER AND/OR OBSTRUCTIONS TO VISIBILITY. WIND
SPEEDS ARE IN MILES-PER-HOUR.



USA.gov is the U.S. government's official web portal to all federal, state and local government web resources and services.